Location: Newark
(45.1167°S, 170.6500°W)
Time: 20:54:47
(UTC+00:00)

N. Korean satellite - Visible Passes

Search period start: 23 October 2019 00:00
Search period end: 02 November 2019 00:00
Orbit: 455 x 508 km, 97.2° (Epoch: 22 October)

Date Brightness Start Highest point End Pass type
(mag) Time Alt. Az. Time Alt. Az. Time Alt. Az.
25 Oct 10.4 06:37:32 10° SW 06:39:13 13° WSW 06:40:52 10° W visible
25 Oct 9.4 15:40:11 10° NE 15:43:19 26° ESE 15:46:27 10° SSE visible
26 Oct 10.2 15:16:10 10° E 15:18:14 14° ESE 15:20:17 10° SSE visible
30 Oct 10.5 15:09:01 10° E 15:10:25 12° ESE 15:11:48 10° SE visible
